Accueil
METAR-TAF:

METAR-TAF

Aéroports :

Turin, Italie

latitude: 45-05-20N, longitude: 007-36-20E, altitude: 288 m

Observation

Le bulletin a été fait il y a 10 heures et 31 minutes, à 16:50 UTC
Vent calme
Température 10°C
Humidité 46%
Pression 1018 hPa
Visibilité 10 km ou plus
Nuages épars à une hauteur de 2500 ft

METAR: LIMA 161650Z 00000KT 9999 SCT025 10/M01 Q1018

Heure: 05:21 (03:21 UTC)


TAF: absent

Observations et prévisions météorologiques de plus de 4000 aéroports (messages METAR et TAF).

Les stations disponibles sont représentées par des disques jaunes et rouges sur la carte.

Passer la souris dessus pour voir le nom de la station.

Cliquer dessus pour voir les observations et prévisions météorologiques.

Pour changer de carte: cliquez sur les boutons verts avec une croix noire pour zoomer, sur le bouton vert avec un tiret pour effectuer un zoom arrière, ou sur les flèches vertes pour les cartes adjacentes.


METAR-TAF: